Regional Weather Roundup
Issued by NWS

Home | Current Version | Previous Version | Text Only | Print | Product List | Glossary On
Versions: 1 2 3 4 5 6 7 8 9 10 11 12 13 14 15 16 17 18 19 20 21 22 23 24 25 26 27 28 29 30 31 32 33 34 35 36 37 38 39 40 41 42 43 44 45 46 47 48 49 50
000
ASUS43 KTOP 230608
RWRKS

WEATHER ROUNDUP FOR KANSAS
NATIONAL WEATHER SERVICE GOODLAND KS
100 AM CDT WED JUL 23 2014

NOTE:  "FAIR" INDICATES FEW OR NO CLOUDS BELOW 12,000 FEET WITH NO
SIGNIFICANT WEATHER AND/OR OBSTRUCTIONS TO VISIBILITY.

KSZ001>006-013>018-027>032-041>047-230700-
NORTHWEST KANSAS

CITY           SKY/WX    TMP DP  RH WIND       PRES   REMARKS
GOODLAND       CLEAR     73  68  84 E9        30.27R
6HR MIN TEMP:  73; 6HR MAX TEMP:  95;

HAYS           PTCLDY    45 N/A N/A NE12      30.17R
HILL CITY      CLEAR     78  68  71 E10       30.21R
6HR MIN TEMP:  78; 6HR MAX TEMP:  98;

RUSSELL        CLEAR     81  74  79 NE9       30.15R
6HR MIN TEMP:  81; 6HR MAX TEMP:  97;

$$

KSZ061>065-074>080-084>089-230700-
SOUTHWEST KANSAS

CITY           SKY/WX    TMP DP  RH WIND       PRES   REMARKS
DODGE CITY     CLEAR     71  62  73 S7        30.18R
6HR MIN TEMP:  71; 6HR MAX TEMP:  92;

ELKHART          N/A     73  62  68 S7          N/A
GARDEN CITY    CLEAR     75  63  66 S5        30.19S
6HR MIN TEMP:  75; 6HR MAX TEMP:  92;

GREAT BEND     CLEAR     75  66  73 SW5       30.13R
LIBERAL        CLEAR     75  66  73 S6        30.22R
PRATT          CLEAR     73  68  83 S6        30.16R
$$

KSZ066>073-081>083-090>101-230700-
SOUTHEAST KANSAS

CITY           SKY/WX    TMP DP  RH WIND       PRES   REMARKS
CHANUTE        CLEAR     80  75  84 SW6       30.07R
6HR MIN TEMP:  79; 6HR MAX TEMP:  94;

COFFEYVILLE    CLEAR     80  76  87 S7        30.06S
6HR MIN TEMP:  80; 6HR MAX TEMP:  94;

HUTCHINSON     CLEAR     75  68  78 CALM      30.12R
6HR MIN TEMP:  75; 6HR MAX TEMP:  99;

MEDICINE LODGE   N/A     77  72  84 CALM      30.12R
NEWTON         CLEAR     82  68  61 SW8       30.14R
PARSONS        CLEAR     77  74  90 CALM      30.08R
6HR MIN TEMP:  77; 6HR MAX TEMP:  94;

WICHITA INTL   CLEAR     78  72  81 SW3       30.10R
6HR MIN TEMP:  78; 6HR MAX TEMP:  94;

WICHITA JABRA  CLEAR     83  73  72 SW10      30.10R
6HR MIN TEMP:  82; 6HR MAX TEMP:  93;

WICHITA MCCONL CLEAR     80  77  90 S8        30.11R
WINFIELD       CLEAR     80  74  81 CALM      30.11R
6HR MIN TEMP:  79; 6HR MAX TEMP:  91;

$$

KSZ007>012-019>026-033>040-048>060-102>105-230700-
NORTHEAST KANSAS

CITY           SKY/WX    TMP DP  RH WIND       PRES   REMARKS
CONCORDIA      CLEAR     77  68  73 NE10      30.17R
6HR MIN TEMP:  77; 6HR MAX TEMP:  95;

EMPORIA        CLEAR     81  72  74 N8        30.10R
6HR MIN TEMP:  79; 6HR MAX TEMP:  97;

LAWRENCE       CLEAR     84  77  79 N14       30.08R
6HR MIN TEMP:  83; 6HR MAX TEMP:  93;

MANHATTAN      PTCLDY    82  73  74 NE16      30.12R
6HR MIN TEMP:  82; 6HR MAX TEMP: 101;

MARYSVILLE     CLEAR     73  70  88 NE7       30.16R
OLATHE IND     CLEAR     82  76  81 N12       30.09R
6HR MIN TEMP:  79; 6HR MAX TEMP:  97;

OLATHE EXE     CLEAR     84  76  76 N9        30.08R
6HR MIN TEMP:  82; 6HR MAX TEMP:  94;

SALINA         PTCLDY    87  75  67 NE13      30.12R HX  96
6HR MIN TEMP:  87; 6HR MAX TEMP: 103;

TOPEKA BILLARD CLEAR     83  75  77 NE8       30.10R
6HR MIN TEMP:  83; 6HR MAX TEMP: 102;

TOPEKA FORBES  CLEAR     83  75  77 N9        30.10R
6HR MIN TEMP:  83; 6HR MAX TEMP: 100;

$$



USA.gov is the U.S. government's official web portal to all federal, state and local government web resources and services.